Погода в Новоельне

Беларусь     53°27′51″N   25°34′51″E
темп.,
°C
ветер,
м/с
пор.,
м/с
влажн.,
%
обл.,
%
осадки,
мм/ч
давл.,
гПа
погр.,
м
9 марта, вт
вт900:00−9ссз239225 0.0 101930
03:00−10ссз229314 0.0 102021
06:00−11ссз239416 0.0 102121
09:00−10ссз12948 0.0 102235
12:00−5с237530 0.0 1023654
15:00−3сз226647 0.0 1023955
18:00−5зсз228278 0.0 102357
21:00−9ю128375 0.0 102421
10 марта, ср
ср1000:00−9ю238692 0.0 102524
03:00−10ю238865 0.0 102529
06:00−11ю23870 0.0 102426
09:00−9ююв23870 0.0 102446
12:00−4ююз23780 0.0 1024396
15:00−2ююз23680 0.0 1023891
18:00−3юз117718 0.0 102234
21:00−7юв228012 0.0 102422
11 марта, чт
чт1100:00−9юв338346 0.0 102432
03:00−9юв338323 0.0 102434
06:00−9юв33820 0.0 102438
09:00−8юв36830 0.0 1024108
12:00−2ююв58850 0.0 1023521
15:00−1ююв688617 0.1 1022942
18:00−1ююв61084100 0.2 1019705
21:00−3ююв71392100 0.2 1018565
12 марта, пт
пт1200:00−2ююв81684100 0.0 1015805
03:00−2ююв91784100 0.1 1012816
06:00−2ююв101894100 0.9 1008822
09:00−1ю101794100 1.9 1005626
12:00+1ю612100100 2.0 1004477
15:00+2юз511100100 2.6 1004422
18:00+1з61298100 0.8 1006504
21:00+1зюз41099100 1.2 1009346
13 марта, сб
сб1300:00+1зюз3799100 0.4 1011275
03:00−1ююз3698100 0.4 1011166
06:00−2ююз489562 0.0 1011159
09:00−1ю4109138 0.0 1011282
12:00+2ю61194100 0.0 1009383
15:00+4ю5119393 0.0 1008792
18:00+2зюз51098100 1.7 1008408
21:00+1юз499598 1.7 1009282